STARLINK-34328, 64220

Orbit data source: Space-Track

STARLINK-34328, 64220 is a payload satellite owned by SpaceX/Seattle (US) in LEO that was launched on Sat, 31 May 2025 UTC via an FALCON 9 launch vehicle from the Air Force Western Test Range (AFWTR). Payload-class satellites include a variety of spacecraft equipped with specific instruments for various scientific and technological missions. These include communications satellites like Starlink; space stations such as the ISS; scientific satellites like the Hubble; Earth observation satellites from companies like Planet Labs, Umbra, and HawkEye 360; GPS; miniature CubeSats for education and research; and military/defense satellites.

Loading next visibility...
Identifier
64220, 2025-117T
Orbit
LEO
Country
Flag of USUS
Related business
Manufacturer
SpaceX/Seattle
Mission
Operational Commercial Communications
Bus & Motor
STARLINK V2MO, Unknown motor
Mass
575 kg wet, ~530 kg dry
Launch date (UTC)
2025-05-31 (1 year ago)
Launch vehicle
FALCON 9
Launch site
Air Force Western Test Range (AFWTR)
Object type
Payload
Rocket body
Debris
Shape & HBR
Box + 1 Pan, 17.7 m
Radar Cross Section
41.120 m², Large (>1 m²)

Expand to show TLE details & history
Last TLE update: 16 hours ago

TLE from 16 hours ago
0 STARLINK-34328
1 64220U 25117T   26235.67517864  .00027253  00000-0  81489-3 0  9994
2 64220  53.1620 341.7267 0000548 337.2213  22.8766 15.34395628 70128
Epoch: 2026-08-23T16:12Z
TLE epoch observation values (Epoch: 2026-08-23T16:12:15.434Z)
Latitude
0.00004°
Longitude
126.69459°
Altitude
463.272 km
Speed
7.636 km/s
True Right ascension
22h 46m 54s
True Declination
0° 00' 00"
Sunlit
Object was in full shadow at epoch
Visualization orbit readout
Latitude
Unknown
Longitude
Unknown
Altitude
Unknown
Speed
Unknown
Apparent Right ascension
Unknown
Apparent Declination
Unknown
Sunlit
N/A
Visualization observer readout
Local Sidereal Time
23:04:01
Azimuth
Unknown
Elevation
Unknown
Doppler factor
Unknown
Orbital elements
Apogee altitude
463.348 km
Perigee altitude
462.598 km
Semi-major axis
6,841.11 km
Eccentricity
0.00005
Inclination
53.162°
RAAN
341.7267°
Arg. of periapsis
337.2213°
True anomaly
22.87904°
Mean anomaly
22.8766°
Eccentric anomaly
22.87782°
Mean motion
3.83578 °/min
Orbital period
93.85 mins
BSTAR
0.00081489
Loading maneuver chart data...
Computing Atmospheric mass density...
Loading historical data...
Loading historical data...
Loading historical data...
Loading historical data...
Loading historical data...
Loading historical data...
Loading historical data...

Documentation

Showing up to 5 results
|